EHI
0 0 0 0 0 0 0 0 0 0 0 0 0 0 0 0 0 0 0 0 0 0 0 0 0 0 0 0 0 0 0 0 0 0 0 0 0 0 0 0 0 0 0
0 0 0 0 0 0 0 0 0 0 0 0 0 0 0 0 0 0 0 0 0 0 0 0 0 0 0 0 0 0 0 0 0 0 0 0 0 0 0 0 0 0 0
0 0 0 0 0 0 0 0 0 0 0 0 0 0 0 0 0 0 0 0 0 0 0 0 0 0 0 0 0 0 0 0 0 0 0 0 0 0 0 0 0 0 0
0 0 0 0 0 0 0 0 0 0 0 0 0 0 0 0 0 0 0 0 0 0 0 0 0 0 0 0 0 0 0 0 0 0 0 0 0 0 0 0 0 0 0
0 0 0 0 0 0 0 0 0 0 0 0 0 0 0 0 0 0 0 0 0 0 0 0 0 0 0 0 0 0 0 0 0 0 0 0 0 0 0 0 0 0 0
0 0 0 0 0 0 0 0 0 0 0 0 0 0 0 0 0 0 0 0 0 0 0 0 0 0 0 0 0 0 0 0 0 0 0 0 0 0 0 0 0 0 0
0 0 0 0 0 0 0 0 0 0 0 0 0 0 0 0 0 0 0 0 0 0 0 0 0 0 0 0 0 0 0 0 0 0 0 0 0 0 0 0 0 0 0
0 0 0 0 0 0 0 0 0 0 0 0 0 0 0 0 0 0 0 0 0 0 0 0 0 0 0 0 0 0 0 0 0 0 0 0 0 0 0 0 0 0 0
0 0 0 0 0 0 0 0 0 0 0 0 0 0 0 0 0 0 0 0 0 0 0 0 0 0 0 0 0 0 0 0 0 0 0 0 0 0 0 0 0 0 0
0 0 0 0 0 0 0 0 0 0 0 0 0 0 0 0 0 0 0 0 0 0 0 0 0 0 0 0 0 0 0 0 0 0 0 0 0 0 0 0 0 0 0
0 0 0 0 0 0 0 0 0 0 0 0 0 0 0 0 0 0 0 0 0 0 0 0 0 0 0 0 0 0 0 0 0 0 0 0 0 0 0 0 0 0 0
0 0 0 0 0 0 0 0 0 0 0 0 0 0 0 0 0 0 0 0 0 0 0 0 0 0 0 0 0 0 0 0 0 0 0 0 0 0 0 0 0 0 0
0 0 0 0 0 0 0 0 0 0 0 0 0 0 0 0 0 0 0 0 0 0 0 0 0 0 0 0 0 0 0 0 0 0 0 0 0 0 0 0 0 0 0
0 0 0 0 0 0 0 0 0 0 0 0 0 0 0 0 0 0 0 0 0 0 0 0 0 0 0 0 0 0 0 0 0 0 0 0 0 0 0 0 0 0 0
0 0 0 0 0 0 0 0 0 0 0 0 0 0 0 0 0 0 0 0 0 0 0 0 0 0 0 0 0 0 0 0 0 0 0 0 0 0 0 0 0 0 0
0 0 0 0 0 0 0 0 0 0 0 0 0 0 0 0 0 0 0 0 0 0 0 0 0 0 0 0 0 0 0 0 0 0 0 0 0 0 0 0 0 0 0
0 0 0 0 0 0 0 0 0 0 0 0 0 0 0 0 0 0 0 0 0 0 0 0 0 0 0 0 0 0 0 0 0 0 0 0 0 0 0 0 0 0 0
0 0 0 0 0 0 0 0 0 0 0 0 0 0 0 0 0 0 0 0 0 0 0 0 0 0 0 0 0 0 0 0 0 0 0 0 0 0 0 0 0 0 0
0 0 0 0 0 0 0 0 0 0 0 0 0 0 0 0 0 0 0 0 0 0 0 0 0 0 0 0 0 0 0 0 0 0 0 0 0 0 0 0 0 0 0
0 0 0 0 0 0 0 0 0 0 0 0 0 0 0 0 0 0 0 0 0 0 0 0 0 0 0 0 0 0 0 0 0 0 0 0 0 0 0 0 0 0 0
0 0 0 0 0 0 0 0 0 0 0 0 0 0 0 0 0 0 0 0 0 0 0 0 0 0 0 0 0 0 0 0 0 0 0 0 0 0 0 0 0 0 0
0 0 0 0 0 0 0 0 0 0 0 0 0 0 0 0 0 0 0 0 0 0 0 0 0 0 0 0 0 0 0 0 0 0 0 0 0 0 0 0 0 0 0
0 0 0 0 0 0 0 0 0 0 0 0 0 0 0 0 0 0 0 0 0 0 0 0 0 0 0 0 0 0 0 0 0 0 0 0 0 0 0 0 0 0 0
0 0 0 0 0 0 0 0 0 0 0 0 0 0 0 0 0 0 0 0 0 0 0 0 0 0 0 0 0 0 0 0 0 0 0 0 0 0 0 0 0 0 0
0 0 0 0 0 0 0 0 0 0 0 0 0 0 0 0 0 0 0 0 0 0 0 0 0 0 0 0 0 0 0 0 0 0 0 0 0 0 0 0 0 0 0
0 0 0 0 0 0 0 0 0 0 0 0 0 0 0 0 0 0 0 0 0 0 0 0 0 0 0 0 0 0 0 0 0 0 0 0 0 0 0 0 0 0 0
Wind_Speed
2 2 2 1 2 1 1 1 2 2 3 3 3 3 3 3 3 3 2 6 8 8 9 10 10 9 9 8 8 8 8 8 9 10 10 10 10 10 10 10 10 10 10
2 2 2 2 2 1 1 2 2 2 2 2 3 3 3 3 3 3 3 3 6 6 8 9 10 10 9 9 9 9 8 9 10 10 11 10 10 10 10 10 10 10 10
2 2 2 2 2 2 1 1 1 1 2 2 3 3 3 3 3 3 3 2 2 4 7 8 9 10 10 9 9 9 9 9 9 10 11 11 11 11 11 10 10 10 10
3 2 2 2 3 2 1 1 1 1 1 2 2 2 2 2 3 3 2 2 2 2 4 7 8 9 10 10 10 10 10 9 10 10 11 12 12 12 12 11 11 11 10
4 3 2 2 3 2 1 1 0 1 1 1 2 2 2 3 2 2 2 2 2 2 2 4 7 9 10 10 10 10 10 11 11 11 11 12 12 12 12 12 11 11 11
4 3 3 4 3 2 2 1 1 0 0 1 2 2 2 3 2 3 3 2 2 3 3 3 3 6 10 10 10 11 11 11 12 12 12 13 12 13 13 13 12 12 11
4 4 3 4 4 2 2 2 1 1 1 0 0 1 1 2 3 3 3 2 2 3 3 3 3 3 4 10 11 11 12 12 12 13 13 13 13 13 14 13 13 13 13
4 4 4 3 3 3 4 3 2 1 1 1 1 1 1 2 1 2 2 2 3 2 3 4 3 4 4 4 7 12 11 11 13 14 14 14 14 14 14 14 14 14 13
4 4 4 3 3 3 3 3 2 1 1 1 1 1 1 1 1 1 1 1 1 2 2 2 4 5 5 5 5 9 12 12 13 15 15 15 15 15 15 15 15 15 14
4 4 4 4 3 3 3 3 2 1 1 1 1 1 0 1 0 1 2 1 1 2 2 3 3 4 5 5 6 9 12 13 14 16 16 16 16 16 16 16 16 15 15
4 4 4 3 3 3 3 3 3 2 1 1 1 1 1 1 0 0 1 2 2 2 2 3 3 3 4 5 5 8 12 13 14 15 16 17 17 17 18 17 17 17 16
3 5 4 3 3 3 3 3 2 3 2 1 1 1 0 0 0 0 1 1 2 2 2 2 3 3 3 4 7 9 11 12 13 14 15 16 17 18 19 19 19 19 19
2 4 4 3 3 3 3 3 3 3 3 2 1 1 1 1 1 1 1 1 1 2 2 2 2 2 3 3 4 9 10 12 13 14 14 15 15 16 18 20 20 21 20
2 3 3 2 3 3 3 3 3 3 2 3 3 2 1 1 1 1 1 1 1 2 2 3 2 2 2 2 4 7 6 11 12 13 14 15 15 16 17 18 19 20 20
2 2 2 2 2 3 3 2 2 3 3 2 2 2 1 1 1 1 1 2 2 1 2 3 2 2 2 2 4 4 5 8 11 13 14 15 15 15 16 17 17 17 17
2 2 2 2 2 2 2 2 2 2 3 3 2 3 2 2 2 1 1 1 2 2 2 2 2 3 3 4 4 4 5 8 11 12 13 14 15 15 15 16 16 16 16
1 1 1 1 1 2 2 2 2 2 3 3 3 3 3 3 2 2 1 1 1 2 3 3 2 2 3 4 4 3 4 4 5 10 12 14 15 15 15 15 16 16 16
2 1 1 1 1 1 1 1 2 2 2 3 4 3 4 3 3 2 1 1 2 2 3 4 3 2 3 4 4 4 4 4 4 8 11 12 13 14 14 15 15 15 16
2 1 1 2 2 2 2 2 2 2 2 3 3 3 4 3 3 2 2 2 2 2 2 3 3 2 3 2 3 3 4 3 4 5 8 10 12 13 14 14 14 15 15
2 2 2 3 3 3 3 3 2 2 3 3 3 3 3 3 4 3 3 3 2 2 2 2 3 3 3 3 2 3 3 2 3 4 5 6 8 11 13 14 15 15 16
4 3 3 3 3 3 3 3 3 3 3 4 4 3 4 5 5 3 2 2 2 2 2 2 3 2 3 2 2 2 3 3 4 3 3 3 4 5 6 10 13 15 16
4 3 4 4 4 4 6 6 4 3 3 3 4 4 5 4 5 6 7 5 3 2 3 2 3 3 4 3 3 3 3 3 3 2 2 3 3 5 5 5 9 13 15
4 4 5 4 5 7 9 9 7 3 3 3 4 4 4 4 5 4 5 7 6 6 5 4 5 5 4 3 3 4 4 4 5 3 2 4 3 5 5 6 11 13 15
4 5 5 5 5 8 10 9 8 3 3 4 4 4 4 5 4 4 3 4 5 5 5 4 5 6 6 5 5 5 5 6 5 4 3 4 3 4 4 5 10 14 14
5 5 5 5 6 8 10 9 7 2 3 5 4 4 4 5 8 7 4 5 6 5 6 7 8 9 12 12 8 5 5 5 5 4 3 4 3 3 3 5 7 12 13
4 4 5 5 6 7 9 10 7 2 3 4 4 4 6 6 8 7 4 4 6 6 5 6 6 7 7 8 9 6 5 5 4 4 3 3 3 2 3 3 3 4 6
Wind_Direction
324 317 310 303 291 278 262 248 237 219 213 209 211 210 216 225 236 238 246 258 258 245 227 216 210 204 202 203 200 192 181 176 174 171 170 165 161 156 153 152 152 150 149
333 323 320 317 308 286 255 237 226 216 218 205 211 217 218 218 226 235 234 252 254 249 233 221 214 205 204 204 202 194 187 181 179 175 171 167 163 160 158 156 155 153 151
347 338 333 331 315 303 284 261 236 208 215 209 209 213 214 222 220 229 230 225 239 247 234 223 214 207 206 206 204 198 192 187 184 179 176 172 169 167 165 162 162 159 155
359 352 347 333 323 325 326 286 239 210 216 217 213 220 217 223 230 232 228 225 221 235 230 224 214 206 207 208 207 204 199 194 192 188 184 178 175 174 172 172 172 168 164
6 7 1 340 338 349 349 319 266 208 215 229 229 223 223 225 231 244 238 234 224 222 215 223 218 210 206 208 210 210 207 203 199 197 192 185 182 180 178 178 177 174 176
8 13 13 0 0 12 2 350 325 296 230 241 255 241 229 225 221 232 235 230 219 220 212 210 211 214 211 209 212 214 214 211 206 204 200 195 190 186 184 184 183 183 183
10 20 15 9 12 18 4 355 352 13 342 347 43 335 308 245 227 231 231 226 226 221 203 205 204 201 209 214 213 215 217 217 213 209 208 203 197 194 191 191 191 191 190
8 19 21 13 11 17 18 14 18 35 4 20 86 83 349 344 308 254 237 227 231 219 217 218 207 206 203 200 212 214 217 218 217 215 213 209 203 201 197 198 198 198 197
8 16 15 14 13 20 14 7 15 47 23 353 23 118 136 237 310 330 286 261 247 224 228 221 218 213 210 206 207 215 215 216 220 221 219 214 209 206 203 204 204 205 203
5 12 13 15 16 18 16 2 24 20 64 26 353 3 153 184 151 335 337 340 291 250 242 238 233 220 214 210 213 210 212 213 218 224 224 221 216 212 210 209 208 209 208
356 4 11 15 18 17 16 16 19 27 39 65 29 356 19 25 71 149 312 332 332 288 257 244 239 230 218 214 215 219 215 214 217 223 227 226 222 218 216 215 214 213 214
338 354 5 16 18 16 14 13 21 31 29 38 32 30 70 111 231 166 225 283 294 289 281 264 246 237 227 219 224 224 220 216 218 225 227 228 227 224 221 219 219 218 218
329 335 354 1 8 8 16 23 32 30 26 30 14 343 313 267 243 197 194 255 281 294 307 291 259 246 240 225 231 231 227 221 220 225 228 228 227 227 226 224 223 222 221
290 313 338 355 6 13 26 33 37 23 26 22 11 358 331 309 281 224 192 179 291 301 300 288 293 261 261 251 244 237 237 230 226 226 228 229 228 226 226 226 226 226 225
289 331 349 1 10 18 23 35 39 19 14 10 358 358 347 319 309 271 234 197 191 253 280 282 292 305 302 276 263 245 242 240 236 232 231 230 229 227 226 225 224 224 224
311 336 349 360 11 15 19 32 24 4 15 1 353 5 355 329 322 313 280 239 210 213 255 271 268 287 302 297 284 266 253 254 246 240 236 234 232 229 227 226 224 221 220
305 313 327 342 349 355 8 22 6 5 10 358 355 353 340 330 330 323 311 265 233 217 247 274 272 284 284 290 299 284 266 250 250 244 238 236 233 231 229 227 224 221 219
288 281 298 309 311 326 335 347 340 353 351 344 341 340 332 335 334 320 304 274 248 230 234 267 281 286 276 281 281 283 276 263 251 250 242 237 234 232 229 227 226 223 220
272 279 276 277 286 296 298 298 295 306 312 312 315 318 314 324 321 313 304 288 269 256 231 255 278 277 283 290 294 286 276 269 264 260 249 240 235 233 231 227 226 224 221
253 263 262 266 273 281 276 277 281 290 302 305 302 299 297 288 280 289 293 284 273 270 256 261 274 279 279 289 288 289 294 279 277 274 260 248 239 236 233 229 225 223 221
248 249 260 272 275 271 258 253 261 272 291 306 310 307 300 300 295 286 289 281 265 262 263 266 276 279 282 290 285 282 287 297 282 255 260 253 240 237 233 232 230 227 223
255 253 255 261 271 267 278 276 255 249 265 282 298 306 306 310 319 330 330 326 298 261 257 253 266 275 279 271 268 271 281 298 294 275 261 267 234 245 239 229 228 225 225
247 255 258 254 262 269 276 281 277 250 245 257 269 286 300 310 325 314 319 328 324 309 282 257 262 267 270 262 268 276 268 264 262 266 276 273 246 251 245 236 229 227 226
242 249 256 254 259 269 275 275 277 261 248 255 254 257 268 287 295 299 300 307 302 293 284 270 251 260 261 263 252 261 272 275 270 258 228 259 253 250 252 239 234 230 228
249 247 251 253 256 270 276 274 271 241 256 266 260 251 252 267 287 300 298 299 302 295 283 270 269 274 278 279 274 265 263 267 274 263 214 232 249 258 259 251 241 232 231
254 260 262 253 249 263 276 275 264 217 252 268 272 260 258 263 280 292 283 286 295 295 302 306 299 295 288 282 278 255 250 260 266 269 224 215 237 243 273 260 246 235 232